Theta_e
314 315 319 320 320 317 323 326 323 326 326 322 323 328 332 333 337 329 334 335 333 335 331 329 334 330 336 332 332 329 333 333 334 335 336 333 331 331 331 331 332 333 334 335 334 335 333 331 332
314 317 321 314 319 321 320 322 326 325 323 322 323 325 330 338 333 333 334 333 331 334 330 326 330 331 335 331 332 329 328 332 332 334 334 332 331 330 330 330 330 331 332 332 332 332 330 328 330
316 317 317 318 318 321 322 323 324 324 322 324 321 322 330 337 332 334 335 333 329 334 328 325 328 331 335 329 332 331 325 329 331 333 333 332 329 330 329 328 327 329 330 331 331 329 327 328 328
316 315 313 319 322 319 319 323 322 321 320 319 323 329 329 333 333 335 335 333 330 333 327 323 325 328 332 330 332 332 330 327 332 330 331 331 330 329 328 328 328 328 328 328 328 328 327 327 327
315 312 319 319 320 318 318 321 319 321 320 319 322 328 335 333 334 336 336 332 332 331 327 321 324 326 328 331 332 333 331 329 326 327 328 330 329 328 328 328 327 327 327 327 326 325 328 327 326
313 312 317 319 318 315 320 320 318 319 318 323 326 330 332 333 335 336 337 335 333 329 326 320 324 326 329 330 331 333 332 331 327 324 321 325 327 329 325 327 327 328 326 327 324 327 327 326 325
314 314 317 317 318 317 317 317 318 316 317 319 324 333 332 331 335 336 336 337 336 330 326 320 322 326 329 329 326 334 334 332 329 325 322 318 326 328 327 325 326 326 326 326 325 328 327 325 325
313 316 318 316 316 317 316 317 315 316 317 314 324 333 335 332 333 335 336 338 337 332 328 321 322 323 325 327 324 329 335 333 331 327 324 320 318 326 326 323 324 325 324 324 324 325 325 324 323
314 316 318 317 316 316 315 316 314 313 314 317 319 327 329 333 333 336 338 338 336 333 330 325 322 323 323 325 325 326 333 333 332 329 327 322 320 319 322 321 319 318 315 319 322 321 320 321 323
312 316 318 315 315 315 315 315 313 314 315 318 332 331 333 332 333 335 337 337 337 334 332 329 324 323 324 323 324 323 326 331 331 330 328 327 326 325 321 321 320 315 314 318 321 320 319 318 322
313 316 315 315 314 313 314 313 313 311 314 316 332 333 331 331 331 332 336 338 338 336 333 332 329 324 324 324 324 323 322 326 329 329 329 328 328 327 324 318 318 316 314 315 318 320 321 321 319
315 313 314 314 313 314 313 312 312 312 312 312 331 333 332 331 331 331 332 337 337 337 336 335 333 332 330 326 324 324 322 324 328 327 330 329 328 328 326 319 316 315 314 314 315 316 318 319 320
314 314 313 313 313 314 313 313 313 312 312 311 329 331 332 332 332 332 332 336 337 337 336 336 334 334 333 332 329 325 324 322 325 328 330 329 329 328 325 324 321 317 320 320 315 316 317 316 317
312 313 312 312 313 312 314 313 313 312 311 317 330 331 330 331 332 333 332 333 336 337 337 336 335 334 334 333 333 331 330 328 328 330 329 330 329 329 326 326 324 322 321 322 321 317 317 315 317
311 312 311 311 312 313 311 314 313 310 311 318 325 327 327 328 331 333 334 333 334 336 336 337 336 334 334 333 333 331 331 331 330 330 330 330 330 329 328 327 326 324 322 321 321 319 318 317 318
311 310 311 311 311 312 312 314 312 307 309 315 318 320 324 324 329 332 334 335 334 334 336 336 337 335 335 333 333 332 331 330 330 330 329 329 330 330 329 328 327 325 322 322 320 319 318 318 318
310 310 309 312 310 311 312 314 312 306 307 309 308 308 312 318 321 329 331 333 334 335 334 335 336 336 335 334 333 332 332 331 331 330 330 329 328 329 329 328 327 326 323 322 320 318 317 317 317
311 310 310 310 310 310 311 311 310 307 306 306 304 304 303 306 312 323 328 329 331 331 335 335 335 336 335 335 333 331 331 332 331 331 331 330 328 328 328 327 327 326 325 323 322 320 318 317 317
309 310 311 310 309 311 309 310 309 308 307 305 304 304 304 304 306 313 321 327 328 330 333 335 336 336 335 334 333 331 330 330 330 330 330 331 330 329 327 327 327 326 325 324 324 323 321 319 317
310 310 309 310 310 310 309 309 308 308 307 306 306 304 305 305 304 307 311 318 326 329 331 335 336 336 335 335 334 332 331 329 330 330 330 330 330 329 328 328 328 327 326 325 324 324 323 321 319
310 309 308 310 309 309 309 307 307 308 307 307 306 305 305 305 305 305 307 314 323 328 330 332 334 335 336 335 334 333 330 329 328 329 329 329 329 329 329 329 329 329 328 326 326 324 323 323 321
311 308 308 309 307 308 305 307 303 303 305 307 307 305 305 304 305 304 305 307 311 313 316 320 328 333 334 334 334 333 331 329 328 328 327 328 329 329 329 329 329 329 330 329 327 326 325 323 322
310 309 309 308 308 306 307 304 303 305 306 304 305 304 304 304 303 303 306 309 310 310 310 310 310 311 325 333 333 333 331 330 329 328 327 326 328 328 328 329 328 328 328 328 329 327 327 325 323
308 308 307 306 304 307 306 304 304 304 307 307 306 304 303 303 305 306 309 311 311 312 312 312 312 310 309 318 332 332 332 331 330 329 325 325 327 327 327 327 327 327 327 327 328 327 326 325 324
308 306 308 308 308 307 305 304 305 304 304 305 306 304 304 305 305 305 307 309 311 312 316 317 313 310 308 308 316 330 332 332 328 326 324 324 326 327 326 327 327 326 326 326 326 326 325 325 322
308 307 310 309 309 305 305 307 306 305 305 303 306 305 304 304 304 305 307 308 309 312 317 318 316 310 310 315 313 320 328 331 329 326 326 325 327 328 327 327 327 326 326 325 325 324 322 321 320
308 309 307 308 302 309 305 304 305 305 306 308 307 306 305 305 305 305 306 308 309 310 315 317 317 316 316 319 320 324 328 329 326 325 324 323 323 326 326 326 324 324 323 322 320 321 319 317 316
308 307 310 308 310 307 305 306 305 307 306 309 308 307 306 305 305 304 305 306 307 309 313 316 315 316 316 318 320 321 323 323 322 321 320 321 321 322 321 321 321 319 317 315 313 312 311 309 308
307 307 307 309 308 309 308 305 303 305 306 306 308 306 305 305 304 303 304 306 307 308 309 312 313 313 314 315 317 318 318 317 319 319 317 316 315 315 315 313 311 309 307 306 305 304 303 302 301
307 307 307 309 308 307 307 306 304 304 307 305 304 306 305 305 303 302 303 304 305 306 306 308 309 311 311 312 313 314 313 314 316 312 309 307 307 305 304 303 302 301 300 298 297 297 296 296 295
Wind_Speed
13 13 10 5 4 5 4 2 4 3 4 4 4 10 7 3 2 3 10 17 25 22 18 16 15 15 16 15 16 16 18 18 19 18 20 20 19 19 19 18 17 18 18 18 18 20 20 20 21
12 9 4 3 4 2 4 2 3 4 7 8 9 5 6 2 3 9 14 25 27 22 18 18 16 16 17 16 16 16 16 18 17 18 19 19 20 19 18 18 18 17 16 16 16 17 18 20 19
8 5 4 4 3 2 3 3 5 3 4 3 5 6 4 3 6 12 18 29 27 22 19 18 18 18 18 16 16 15 15 17 17 17 17 18 18 17 18 17 17 16 16 15 15 15 17 20 20
7 5 4 4 3 4 5 7 6 5 4 7 5 6 3 3 12 13 30 27 26 21 19 18 19 19 17 17 16 14 14 15 16 16 16 16 16 16 17 16 16 15 15 15 15 15 18 20 20
5 2 3 3 4 4 3 3 5 5 5 4 3 2 2 7 13 31 30 29 28 23 19 18 19 19 18 18 17 15 14 14 14 15 15 15 15 15 15 15 15 15 14 14 15 18 19 18 18
3 2 3 3 4 4 2 4 6 3 4 4 6 5 1 9 29 32 29 27 27 27 23 20 19 19 18 16 16 14 13 13 13 14 14 14 15 14 10 13 13 14 14 14 17 18 18 17 16
4 3 4 4 3 1 5 5 6 7 7 3 10 4 1 9 28 31 27 26 25 25 24 22 21 19 18 16 16 15 13 12 12 12 13 13 14 14 8 9 12 12 12 13 17 17 16 15 14
4 3 4 3 4 5 4 3 4 6 4 7 7 6 5 13 29 29 26 26 24 24 22 22 21 20 19 17 15 16 14 13 11 11 11 12 12 11 8 8 10 10 11 12 14 14 14 13 15
3 3 3 5 6 5 2 5 0 2 6 3 1 7 9 33 30 30 28 25 23 23 22 21 21 20 19 17 16 15 14 13 12 11 9 10 10 10 8 7 8 8 9 11 13 12 10 10 9
4 3 7 5 4 5 3 5 7 5 4 4 3 5 29 33 33 26 23 21 25 26 24 22 21 21 20 19 17 16 15 14 12 12 11 10 8 8 7 6 5 7 8 11 11 9 8 8 8
6 5 3 1 3 6 7 6 1 10 2 7 10 13 18 21 23 24 24 31 31 27 25 24 22 21 20 19 18 17 16 15 14 14 11 8 7 5 4 5 6 6 7 8 9 8 5 6 7
5 8 3 3 4 3 8 8 5 5 7 9 15 22 20 16 20 24 25 29 30 29 27 25 23 22 20 18 18 17 17 17 16 15 12 8 9 6 4 5 6 6 7 8 8 5 3 4 3
3 4 2 3 3 3 3 4 6 6 2 7 13 14 15 17 20 25 31 32 31 31 28 27 25 24 21 18 17 17 17 17 15 14 15 11 11 8 8 6 6 7 8 7 7 6 4 4 6
6 3 5 3 2 2 5 3 5 5 3 9 16 14 13 17 23 24 26 30 33 32 31 30 29 26 24 21 19 18 17 15 15 15 16 15 14 11 10 9 7 7 7 6 6 6 5 5 5
3 5 3 3 3 4 6 2 6 5 5 11 10 10 9 14 24 28 32 32 33 35 32 33 32 31 28 26 22 20 18 17 16 14 14 16 16 14 12 11 10 9 8 8 8 8 8 8 8
5 4 5 4 5 3 1 9 6 8 10 10 10 9 9 9 23 30 33 34 34 35 35 34 35 33 30 29 26 25 22 20 19 17 16 16 16 16 15 14 14 11 12 11 11 10 10 10 10
4 5 5 3 7 1 2 5 6 9 10 10 10 10 10 9 17 31 34 35 35 36 36 36 36 35 32 29 27 27 25 23 22 21 20 18 17 16 16 16 15 14 14 14 12 12 12 13 13
5 4 2 6 6 4 3 7 3 6 8 11 10 9 9 10 16 31 34 33 36 33 36 35 35 36 33 29 27 25 27 28 26 25 23 20 19 18 18 17 16 16 15 15 14 14 14 15 16
4 5 6 4 4 6 9 8 8 5 5 8 9 10 9 11 15 26 28 33 32 34 35 36 37 36 35 32 30 27 27 27 28 28 26 24 22 20 20 20 19 18 17 16 15 15 15 17 16
4 4 6 1 2 4 3 10 8 4 7 8 11 10 10 6 7 17 22 23 28 33 34 37 37 37 37 35 35 30 27 26 26 25 25 25 25 24 25 24 23 23 21 21 21 21 20 18 18
6 6 4 3 3 2 2 7 6 7 7 6 9 7 7 11 10 8 16 23 23 28 29 32 34 36 37 38 35 30 21 23 21 24 24 25 24 25 25 25 26 26 25 25 24 24 22 19 13
13 5 6 7 6 4 3 5 6 6 10 9 13 10 10 9 6 4 11 18 20 20 19 19 23 28 33 35 35 32 27 22 26 26 22 23 24 24 24 25 24 26 27 28 27 25 25 22 20
8 5 8 5 5 5 1 1 7 2 6 10 15 11 8 6 7 9 11 13 12 12 12 13 15 17 22 33 34 32 30 27 21 22 18 19 20 20 21 24 23 23 24 25 25 26 25 22 19
6 6 5 4 3 1 5 6 5 5 7 4 4 8 8 7 6 9 11 10 7 6 8 12 14 16 18 20 30 32 32 27 22 16 15 18 17 18 18 19 20 20 20 21 20 20 21 19 21
7 5 2 1 1 5 1 3 8 6 7 6 6 7 8 8 8 8 8 10 8 6 6 6 9 11 13 18 21 27 29 27 19 18 16 17 17 16 16 16 16 16 16 15 14 14 15 16 14
4 7 5 6 4 3 3 6 6 7 2 7 4 7 8 8 6 7 9 10 10 8 8 8 6 8 11 12 17 20 23 22 18 17 12 11 11 13 12 12 14 12 12 11 12 11 9 8 8
4 6 4 6 3 3 4 6 9 6 3 2 6 8 8 8 8 8 11 12 11 10 8 9 10 9 12 13 14 15 18 20 19 13 12 10 8 8 8 9 13 8 7 6 5 4 3 3 4
6 8 3 2 5 3 4 5 6 6 9 6 7 9 8 7 7 7 10 12 11 11 11 10 10 11 12 14 14 15 17 19 17 13 10 9 10 10 8 7 7 6 5 3 2 2 2 3 3
3 3 1 5 4 6 2 6 7 8 9 12 12 10 9 8 8 7 9 11 12 12 11 12 13 14 14 15 17 17 17 17 15 12 10 11 11 10 9 8 8 7 5 4 3 2 2 3 4
0 5 5 7 7 2 4 6 1 5 4 8 10 9 8 7 8 7 13 14 13 13 13 14 14 16 15 17 18 19 18 17 17 16 14 13 13 12 12 11 10 10 9 8 7 6 5 5 5
Wind_Direction
332 336 334 42 45 57 304 5 148 115 49 326 61 92 108 51 81 170 150 162 153 146 144 142 135 128 128 111 103 100 107 101 99 95 98 87 87 86 91 98 99 97 95 95 94 91 86 88 93
341 348 38 79 82 41 275 325 155 143 138 135 90 92 52 66 82 120 131 159 155 147 147 143 140 131 129 116 112 102 106 105 101 99 95 90 92 89 89 91 100 104 101 101 100 97 91 91 96
348 348 73 90 102 192 208 158 154 90 132 88 85 57 109 131 115 137 156 157 155 148 148 146 144 136 132 120 120 108 100 109 103 103 100 96 97 96 94 94 93 95 100 104 103 105 98 95 99
11 5 37 85 256 263 186 180 166 120 55 63 117 68 38 276 143 156 152 156 153 147 148 149 149 146 143 133 128 121 105 102 105 102 104 100 99 96 97 97 97 95 94 93 97 103 102 100 100
44 22 72 74 276 277 72 219 152 122 114 93 108 119 29 146 147 150 154 157 154 151 150 151 153 149 148 143 139 135 121 107 107 105 107 108 100 96 94 96 96 96 93 96 104 110 109 103 105
34 89 77 221 265 321 97 211 132 108 105 156 77 93 193 148 150 155 160 160 155 152 154 153 154 152 150 149 149 144 134 118 113 111 107 112 108 108 91 97 99 99 99 99 109 116 113 105 106
116 96 200 126 241 294 200 172 152 148 136 126 138 94 307 151 156 159 161 159 157 155 155 154 156 157 157 154 156 154 150 133 123 116 113 112 121 116 117 96 104 103 102 111 118 122 119 105 105
117 107 179 136 191 239 203 142 139 127 153 125 142 162 178 188 158 160 160 161 161 160 160 158 159 160 162 161 161 160 156 149 135 124 118 117 125 133 124 101 104 106 120 118 122 124 123 114 100
101 73 204 199 170 234 210 149 205 67 106 72 48 159 171 161 159 157 156 160 164 166 168 167 164 164 164 165 163 164 162 161 152 138 126 125 121 130 132 113 114 113 104 121 125 124 125 131 120
107 152 208 189 205 213 206 162 151 112 119 32 50 54 144 159 159 152 157 163 167 173 175 176 174 171 170 170 170 171 174 174 167 152 140 134 126 127 137 141 130 131 124 127 135 133 131 138 142
158 200 194 202 263 213 176 154 118 125 216 194 168 150 149 164 162 163 170 176 179 178 179 182 181 180 178 178 178 178 178 181 178 167 160 155 157 148 142 167 163 153 149 148 149 145 149 156 168
151 225 198 287 350 153 171 135 129 184 211 174 164 161 159 169 178 176 176 183 183 182 185 186 186 185 185 187 188 185 184 185 187 179 179 181 186 192 188 187 182 176 166 169 176 179 189 195 192
206 173 90 293 2 135 161 153 170 215 210 147 138 157 167 174 189 190 189 190 190 188 190 191 190 193 190 192 193 194 194 195 192 186 185 198 212 214 205 190 185 185 188 188 197 217 221 225 232
196 194 127 284 278 109 171 162 137 237 109 133 156 174 176 179 189 194 196 194 195 196 196 196 195 196 196 199 202 201 200 203 203 200 199 203 219 224 220 215 207 208 216 223 227 242 252 245 247
149 128 53 217 215 233 158 83 207 171 152 159 175 184 181 193 192 198 203 202 202 202 202 202 200 201 203 204 209 211 210 210 210 211 218 219 222 226 225 224 225 226 231 234 241 243 247 249 255
141 101 151 225 171 265 273 226 229 171 152 184 180 198 196 206 205 204 208 212 212 209 206 207 205 205 208 208 210 214 213 215 215 219 223 224 233 231 228 230 230 230 229 231 239 245 251 256 261
219 188 172 188 179 55 222 235 223 171 170 185 199 201 206 213 219 214 214 215 215 212 211 210 208 208 211 214 212 218 218 220 221 223 225 228 232 235 233 232 238 235 234 235 239 244 251 262 268
181 145 171 172 199 143 251 271 254 195 175 197 200 212 212 213 220 218 216 218 219 214 212 211 213 212 212 215 213 218 226 227 229 228 227 228 231 233 236 236 237 237 239 239 241 248 251 259 267
149 171 195 222 178 142 202 237 238 210 210 213 217 218 217 227 231 219 213 216 216 212 210 211 213 214 211 209 207 211 218 229 231 233 235 234 233 229 234 235 238 241 242 252 255 257 259 258 264
230 206 215 210 112 138 164 249 251 221 238 219 207 223 218 214 224 223 212 203 208 209 210 209 213 215 214 215 215 214 217 224 236 237 237 236 236 238 236 240 238 237 237 237 239 243 248 254 261
232 195 225 213 116 73 96 290 246 236 232 236 240 230 218 203 207 207 203 201 195 203 206 211 214 216 216 215 215 218 224 226 233 237 239 238 237 236 238 241 245 243 242 241 242 245 248 254 259
229 192 209 157 141 193 164 264 258 241 244 216 231 220 224 208 211 173 179 178 181 182 191 201 209 219 220 216 218 217 208 206 223 231 239 245 241 241 242 243 247 248 250 246 245 248 248 249 255
225 149 175 158 136 122 206 110 265 249 249 237 231 227 212 213 204 162 154 158 163 180 194 206 209 207 216 222 223 221 215 218 229 231 241 246 244 244 246 247 250 250 251 255 258 252 252 249 258
137 99 60 62 99 213 205 164 268 205 210 252 192 208 184 164 144 128 142 151 160 192 211 226 225 220 215 213 219 222 221 223 226 225 242 244 242 244 244 247 249 251 253 255 256 259 261 258 261
157 147 128 90 226 210 101 154 247 263 248 232 199 180 156 153 156 147 147 149 152 178 180 200 210 212 212 216 213 216 222 221 224 229 235 240 234 232 234 237 243 248 253 253 256 258 258 265 268
188 161 156 173 185 223 97 225 245 239 285 262 234 158 144 160 169 158 158 153 147 152 161 165 160 177 179 183 197 208 210 212 217 215 211 214 222 222 231 236 235 241 244 247 250 251 249 256 273
183 204 145 98 27 74 215 280 295 231 248 104 147 141 172 171 168 156 157 158 153 151 155 158 150 141 150 153 152 165 185 197 188 186 192 193 200 192 197 200 189 191 198 203 196 193 223 260 287
173 156 129 356 131 241 272 280 235 237 221 172 176 185 192 168 155 153 161 155 151 147 147 151 150 153 149 151 147 155 161 168 168 197 207 181 170 159 161 159 153 160 159 159 173 198 249 275 294
143 192 125 117 149 171 184 258 224 220 198 195 202 194 182 171 170 166 157 150 151 145 144 145 144 141 139 141 141 144 144 149 148 183 172 161 156 153 151 149 148 142 133 127 134 110 45 12 357
63 238 164 185 208 199 159 259 183 227 212 212 196 182 166 166 166 168 161 155 151 151 153 152 152 148 145 143 140 139 139 139 140 147 146 145 143 138 135 131 128 121 112 101 92 80 63 40 14